Regional Weather Roundup
Issued by NWS

Home | Current Version | Previous Version | Graphics & Text | Print | Product List | Glossary On
Versions: 1 2 3 4 5 6 7 8 9 10 11 12 13 14 15 16 17 18 19 20 21 22 23 24 25 26 27 28 29 30 31 32 33 34 35 36 37 38 39 40 41 42 43 44 45 46 47 48 49 50
000
ASUS43 KMKX 170800
RWRWI

WISCONSIN REGIONAL WEATHER ROUNDUP
NATIONAL WEATHER SERVICE MILWAUKEE/SULLIVAN WI
200 AM CST TUE JAN 17 2017

NOTE: "FAIR" INDICATES FEW OR NO CLOUDS BELOW 12,000 FEET WITH NO
SIGNIFICANT WEATHER AND/OR OBSTRUCTIONS TO VISIBILITY.

WIZ001-002-006>008-014>016-023>028-170900-
NORTHWEST WISCONSIN

CITY           SKY/WX    TMP DP  RH WIND       PRES   REMARKS
SUPERIOR ARPT  CLOUDY    18  15  90 S5        30.01F WCI  11
ASHLAND        CLOUDY    24  19  81 W3        30.00F
HAYWARD        CLOUDY    30  22  72 N5        29.96F WCI  25
SIREN          CLOUDY    29  22  75 CALM      29.97F
CUMBERLAND     LGT SNOW  32  30  93 N7        29.94F WCI  26
RICE LAKE      LGT SNOW  31  29  94 N12       29.95F WCI  21
CHETEK         LGT SNOW  32  32  99 CALM      29.93F
LADYSMITH      LGT RAIN  32  29  89 N6        29.94F WCI  26
EAU CLAIRE     NOT AVBL
MENOMONIE      LGT SNOW  33  33 100 N6        29.91F WCI  27
NEW RICHMOND   LGT SNOW  31  31  99 NE8       29.94S WCI  24
OSCEOLA        MIX PCPN  31  28  89 N3        29.98S
$$

WIZ003>005-009-010-017-018-170900-
NORTH CENTRAL WISCONSIN

CITY           SKY/WX    TMP DP  RH WIND       PRES   REMARKS
MANITOWISH WTR CLOUDY    25  24  99 CALM      29.95S
ARBOR VITAE    CLOUDY    29  25  84 CALM      29.94S
WOODRUFF       CLOUDY    29  25  84 CALM      29.94S
RHINELANDER    LGT SNOW  29  27  92 NE5       29.94F FOG     WCI  24
EAGLE RIVER    CLOUDY    25  21  86 CALM      29.94S
LAND O LAKES   CLOUDY    23  20  91 CALM      29.97S
PHILLIPS       LGT SNOW  29  25  84 N5        29.93F WCI  24
TOMAHAWK       LGT SNOW  29  27  92 NE3       29.94S
MEDFORD        MIX PCPN  32  31  96 NE7       29.89F WCI  25
MERRILL        LGT SNOW  32  32 100 NE6         N/A  WCI  26
$$

WIZ029-030-035-036-043>047-170900-
CENTRAL WISCONSIN

CITY           SKY/WX    TMP DP  RH WIND       PRES   REMARKS
WAUSAU         LGT RAIN  33  32  96 NE7       29.88F WCI  27
MOSINEE        MIX PCPN  32  32 100 NE7       29.88F WCI  26
MARSHFIELD     CLOUDY    33  31  92 NE12      29.85F FOG     WCI  24
STEVENS POINT  CLOUDY    31  31 100 NE8       29.88F WCI  24
WAUPACA        DRIZZLE   35  33  93 CALM      29.89F
WAUTOMA        MIX PCPN  33  32  96 NE8       29.87S WCI  26
WISC RAPIDS    LGT RAIN  33  33 100 E7        29.88F FOG     WCI  27
CAMP DOUGLAS   CLOUDY    32  32 100 NE3       29.85F FOG
$$

WIZ011>013-019>022-031-037>040-048>050-170900-
NORTHEAST WISCONSIN

CITY           SKY/WX    TMP DP  RH WIND       PRES   REMARKS
ANTIGO         LGT SNOW  31  30  99 E7        29.92F WCI  24
SHAWANO        DRIZZLE   33  32  94 NE5       29.93F WCI  29
OCONTO         CLOUDY    32  31  96 NE6       29.94F WCI  26
STURGEON BAY   LGT RAIN  33  32  96 NE7       29.94F FOG     WCI  27
GREEN BAY      MIX PCPN  35  34  96 NE12      29.90F FOG     WCI  27
MANITOWOC      MIX PCPN  36  36 100 NE5       29.89F FOG     WCI  32
APPLETON       CLOUDY    32  32 100 NE8       29.86F FOG     WCI  25
CLINTONVILLE   MIX PCPN  32  32 100 NE7       29.90F WCI  26
OSHKOSH        CLOUDY    33  32  96 NE10      29.86F FOG     WCI  25
$$

WIZ032>034-041-042-053>061-170900-
SOUTHWEST WISCONSIN

CITY           SKY/WX    TMP DP  RH WIND       PRES   REMARKS
LA CROSSE      CLOUDY    36  32  85 NW7       29.87F FOG     WCI  30
SPARTA         CLOUDY    32  32 100 NE3       29.87F
VIROQUA        CLOUDY    32  32 100 CALM      29.83S
BOSCOBEL       CLOUDY    34  33  96 CALM      29.84F FOG
PRAIRIE DU CHI CLOUDY    33  32  96 CALM      29.84S FOG
PLATTEVILLE    CLOUDY    34  34 100 N7        29.81F WCI  28
$$

WIZ056-057-062-063-064-067-068-170900-
SOUTH CENTRAL WISCONSIN

CITY           SKY/WX    TMP DP  RH WIND       PRES   REMARKS
REEDSBURG      CLOUDY    32  32 100 NE5       29.84F FOG     WCI  27
BARABOO/DELLS  FOG       32  32 100 NE5       29.84F VSB 1   WCI  27
LONE ROCK      NOT AVBL
MINERAL POINT  CLOUDY    34  34 100 NE6       29.80F FOG     WCI  29
MADISON        LGT RAIN  33  33 100 N8        29.81F FOG     WCI  26
MIDDLETON      CLOUDY    35  35 100 N6        29.82F WCI  29
WATERTOWN      DRIZZLE   34  34 100 NE3       29.81F
MONROE         DRIZZLE   34  34 100 N8        29.78S WCI  27
JANESVILLE     CLOUDY    36  36 100 N5        29.78F FOG     WCI  32
$$

WIZ051-052-058>065-066-070>072-170900-
SOUTHEAST WISCONSIN

CITY           SKY/WX    TMP DP  RH WIND       PRES   REMARKS
MILWAUKEE      DRZL/FOG  38  36  92 NE6       29.81F VSB 1/2 WCI  33
WAUKESHA       FOG       32  32 100 NE6       29.81F VSB 1/4 WCI  26
MILWAUKEE/TIMM FOG       36  32  87 NE6       29.83F VSB 3/4 WCI  31
RACINE         FOG       37  36  96 E12       29.81F VSB 1/2 WCI  29
KENOSHA        FOG       37  36  96 E8        29.80S VSB 1/4 WCI  31
FOND DU LAC    CLOUDY    34  32  92 NE9       29.85F FOG     WCI  27
SHEBOYGAN      FOG       34  33  96 E7        29.86F VSB 1/2 WCI  28
WEST BEND      FOG       34  34 100 E8        29.83F VSB 1   WCI  27
JUNEAU         DRZL/FOG  33  33  99 NE7       29.84F VSB 1   WCI  27
$$

LSZ147-162-170900-
LAKE SUPERIOR

STATION/POSITION TIME  TEMP    WIND        PRES    WAVE
                       AIR SEA DIR/SP/G            HT/PER
                 (UTC) (F)     (DEG/KT/KT) (MB)    (FT/S)
DEVILS ISLAND    0700   34      70/  6/  6 1017.0F
PORT WING        0740   23     190/  2/  3 1016.6R
SAXON HARBOR     0740   26     200/  2/  3 1015.6F
$$

LMZ867-665-643>646-170900-
LAKE MICHIGAN

STATION/POSITION TIME  TEMP    WIND        PRES    WAVE
                       AIR SEA DIR/SP/G            HT/PER
                 (UTC) (F)     (DEG/KT/KT) (MB)    (FT/S)
NORTHPORT PIER   0740   35      50/ 10/ 13 1015.2F
SISTER BAY       0650   33      40/  3/  6   N/A
KEWAUNEE LAKESHO 0730   35      70/  7/  9 1012.9F
SHEBOYGAN LAKESH 0700   36     100/ 12/ 13 1012.1F
PORT WASHINGTON  0730   36      70/  7/  8 1011.5F
MILWAUKEE LAKESH 0730   36      40/  8/  9   N/A
KENOSHA   LAKESH 0700   36      90/ 13/ 14 1009.5
$$

TC  - TEMPERATURE IN CELSIUS
VSB - VISIBILITY IN STATUTE MILES
WCI - WIND CHILL INDEX
HX  - HEAT INDEX





USA.gov is the U.S. government's official web portal to all federal, state and local government web resources and services.